Погода в Валя-луй-Михай

Румыния     47°30′58″N   22°08′06″E
темп.,
°C
ветер,
м/с
пор.,
м/с
влажн.,
%
обл.,
%
осадки,
мм/ч
давл.,
гПа
погр.,
м
27 октября, ср
ср2700:00+6сз115131 0.0 102610
03:00+5ссв0055100 0.0 102610
06:00+5ююв115799 0.0 102610
09:00+5сз11590 0.0 102810
12:00+11зюз11435 0.0 1028425
15:00+14з223610 0.0 1027887
18:00+11сз114590 0.0 102710
21:00+8св115462 0.0 102810
28 октября, чт
чт2800:00+7вюв115798 0.0 102810
03:00+6в116125 0.0 102810
06:00+5в126493 0.0 102810
09:00+6в226135 0.0 102816
12:00+12всв343932 0.0 1028449
15:00+16всв33325 0.0 1026720
18:00+12св33435 0.0 102523
21:00+9св345331 0.0 102652
29 октября, пт
пт2900:00+8всв345451 0.0 102646
03:00+7в33525 0.0 102530
06:00+6вюв225526 0.0 102510
09:00+7в11555 0.0 102510
12:00+14всв22345 0.0 1024332
15:00+17з112745 0.0 1022626
18:00+14зюз11365 0.0 102210
21:00+11ссв004212 0.0 102210
30 октября, сб
сб3000:00+10в11465 0.0 102310
03:00+9вюв11495 0.0 102310
06:00+8ююв11545 0.0 102310
09:00+8вюв11595 0.0 102410
12:00+15зсз11390 0.0 1024316
15:00+18всв11320 0.0 1023630
18:00+14св11420 0.0 102311
21:00+12в22530 0.0 102410
31 октября, вс
вс3100:00+10всв11580 0.0 102410
03:00+9вюв11640 0.0 102210
05:00+8юз11710 0.0 102210
08:00+8ююв22704 0.0 102112
11:00+15вюв224677 0.0 1019339
14:00+18ю2335100 0.0 1017866
17:00+14юз2243100 0.0 101712
20:00+12ю2252100 0.0 101724